Location: Baia Mare
(47.6567°N, 23.5850°E)
Time: 09:30:48
(UTC+03:00)

ISS - Pass Details

Date: 08 February 2018
Orbit: 402 x 406 km, 51.6° (Epoch: 21 June)

Event Time Altitude Azimuth Distance (km) Brightness Sun altitude
Rises 19:38:15 0° 293° (WNW) 2,320 1.2 -20.7°
Reaches altitude 10° 19:40:22 10° 287° (WNW) 1,459 0.0 -21.1°
Enters shadow 19:43:25 49° 220° (SW) 527 -3.1 -21.6°
